{"data":{"norad_id":62583,"intl_designator":"2025-007J","name":"CENTISPACE-1 S14","alt_names":[],"object_type":"PAYLOAD","status":"ACTIVE","operator":null,"country":"PRC","launch_date":"2025-01-13","launch_site_code":"YSLA","launch_vehicle":null,"mission":null,"orbit_class":"UNKNOWN","rcs_meters":null,"size_class":null,"mass_kg":null,"dimensions":null,"purposes":[],"wikipedia_slug":null,"has_3d_model":false,"image_url":null,"decayed_at":null,"tle_current":{"epoch":"2026-09-22T19:20:40.078752Z","epoch_age_seconds":118152,"freshness":"FRESH","line1":"1 62583U 25007J   26265.80601943 -.00000072  00000+0  64492-4 0  9998","line2":"2 62583  54.9850 311.2345 0009264 287.3181  72.6762 13.80624080 88195","mean_motion":13.8062408,"eccentricity":0.0009264,"inclination_deg":54.985,"raan_deg":311.2345,"arg_perigee_deg":287.3181,"mean_anomaly_deg":72.6762,"bstar":6.4492e-5,"rev_number":8819,"period_min":104.30065800388,"perigee_km":954.87442937012,"apogee_km":968.47363124708,"semimajor_km":7339.8110303086,"source":"CELESTRAK","updated_at":"2026-09-23T09:00:21.491028Z"}}}